Location: St. Louis
(38.6270°N, 90.1994°W)
Time: 07:57:18
(UTC-06:00)

Courier 1B - All Passes

Search period start: 09 December 2021 00:00
Search period end: 19 December 2021 00:00
Orbit: 962 x 1209 km, 28.3° (Epoch: 09 December)

Date Brightness Start Highest point End Pass type
(mag) Time Alt. Az. Time Alt. Az. Time Alt. Az.
09 Dec - 12:13:45 10° S 12:17:23 14° SSE 12:21:01 10° SE daylight
09 Dec - 14:04:11 10° SW 14:10:43 29° SSE 14:17:10 10° ESE daylight
09 Dec - 15:57:18 10° WSW 16:04:22 38° S 16:11:10 10° ESE daylight
09 Dec - 17:51:28 10° WSW 17:57:57 31° SSW 18:04:07 10° SE visible
09 Dec - 19:47:19 10° WSW 19:51:08 15° SSW 19:54:51 10° S visible
10 Dec - 13:10:49 10° SSW 13:16:58 26° SSE 13:23:05 10° ESE daylight
10 Dec - 15:03:29 10° WSW 15:10:34 38° S 15:17:27 10° ESE daylight
10 Dec - 16:57:24 10° WSW 17:04:13 35° S 17:10:46 10° SE visible
10 Dec - 18:52:30 10° WSW 18:57:33 19° SSW 19:02:26 10° SSE visible
11 Dec - 12:17:41 10° SSW 12:23:14 21° SSE 12:28:49 10° ESE daylight
11 Dec - 14:09:46 10° SW 14:16:44 36° S 14:23:37 10° ESE daylight
11 Dec - 16:03:24 10° WSW 16:10:27 37° S 16:17:15 10° ESE daylight
11 Dec - 17:58:03 10° WSW 18:03:55 24° SSW 18:09:34 10° SSE visible
12 Dec - 11:24:56 10° S 11:29:33 17° SSE 11:34:13 10° ESE daylight
12 Dec - 13:16:10 10° SW 13:22:56 33° SSE 13:29:43 10° ESE daylight
12 Dec - 15:09:29 10° WSW 15:16:37 39° S 15:23:37 10° ESE daylight
12 Dec - 17:03:48 10° WSW 17:10:14 29° SSW 17:16:26 10° SE visible
12 Dec - 19:00:31 10° SW 19:03:24 12° SSW 19:06:14 10° S visible
13 Dec - 10:32:52 10° S 10:35:54 13° SSE 10:38:57 10° SE daylight
13 Dec - 12:22:44 10° SW 12:29:10 29° SSE 12:35:39 10° ESE daylight
13 Dec - 14:15:39 10° WSW 14:22:48 39° S 14:29:53 10° ESE daylight
13 Dec - 16:09:41 10° WSW 16:16:29 33° SSW 16:23:05 10° SE daylight
13 Dec - 18:05:13 10° WSW 18:09:48 17° SSW 18:14:16 10° S visible
14 Dec - 11:29:31 10° SSW 11:35:25 24° SSE 11:41:27 10° ESE daylight
14 Dec - 13:21:56 10° WSW 13:28:58 38° S 13:36:02 10° ESE daylight
14 Dec - 15:15:41 10° WSW 15:22:41 36° S 15:29:34 10° SE daylight
14 Dec - 17:10:34 10° WSW 17:16:09 22° SSW 17:21:35 10° SSE visible
15 Dec - 10:36:34 10° SSW 10:41:43 20° SSE 10:47:01 10° ESE daylight
15 Dec - 12:28:20 10° SW 12:35:10 35° S 12:42:06 10° ESE daylight
15 Dec - 14:21:46 10° WSW 14:28:52 38° S 14:35:56 10° ESE daylight
15 Dec - 16:16:14 10° WSW 16:22:27 26° SSW 16:28:33 10° SSE daylight
16 Dec - 09:44:03 10° S 09:48:06 15° SSE 09:52:12 10° ESE daylight
16 Dec - 11:34:51 10° SW 11:41:22 31° SSE 11:48:04 10° ESE daylight
16 Dec - 13:27:57 10° WSW 13:35:02 39° S 13:42:11 10° ESE daylight
16 Dec - 15:22:05 10° WSW 15:28:42 30° SSW 15:35:15 10° SE daylight
16 Dec - 17:18:13 10° WSW 17:22:00 14° SSW 17:25:44 10° S visible
17 Dec - 08:52:43 10° SSE 08:54:30 11° SSE 08:56:18 10° SE daylight
17 Dec - 10:41:34 10° SW 10:47:38 27° SSE 10:53:55 10° ESE daylight
17 Dec - 12:34:14 10° WSW 12:41:12 39° S 12:48:20 10° ESE daylight
17 Dec - 14:28:03 10° WSW 14:34:54 34° SSW 14:41:46 10° SE daylight
17 Dec - 16:23:16 10° WSW 16:28:20 19° SSW 16:33:21 10° SSE daylight
18 Dec - 09:48:30 10° SSW 09:53:57 23° SSE 09:59:36 10° ESE daylight
18 Dec - 11:40:38 10° SW 11:47:24 37° S 11:54:24 10° ESE daylight
18 Dec - 13:34:09 10° WSW 13:41:06 37° S 13:48:08 10° SE daylight
18 Dec - 15:28:48 10° WSW 15:34:38 23° SSW 15:40:27 10° SSE daylight
